Regional Weather Roundup
Issued by NWS

Home | Current Version | Previous Version | Text Only | Print | Product List | Glossary Off
Versions: 1 2 3 4 5 6 7 8 9 10 11 12 13 14 15 16 17 18 19 20 21 22 23 24 25 26 27 28 29 30 31 32 33 34 35 36 37 38 39 40 41 42 43 44 45 46 47 48 49 50

000
ASUS43 KMKX 010321
RWRWI

WISCONSIN REGIONAL WEATHER ROUNDUP
NATIONAL WEATHER SERVICE MILWAUKEE/SULLIVAN WI
1000 PM CDT THU JUL 31 2014

NOTE: "FAIR" INDICATES FEW OR NO CLOUDS BELOW 12,000 FEET WITH NO
SIGNIFICANT WEATHER AND/OR OBSTRUCTIONS TO VISIBILITY.

WIZ001-002-006>008-014>016-023>028-010400-
NORTHWEST WISCONSIN

CITY           SKY/WX    TMP DP  RH WIND       PRES   REMARKS
SUPERIOR ARPT  CLEAR     60  59  96 CALM      29.97R
ASHLAND        CLEAR     62  59  90 W5        29.98S
HAYWARD        PTCLDY    65  63  93 NE3       30.00R
SIREN          PTCLDY    66  65  94 CALM      30.00S
RICE LAKE      MOCLDY    65  62  89 CALM      30.01S
LADYSMITH      PTCLDY    63  61  94 CALM      30.02S FOG
EAU CLAIRE     PTCLDY    69  61  75 SW3       29.99R
MENOMONIE      PTCLDY    67  60  77 SW3       30.00S
NEW RICHMOND   CLEAR     65  58  79 CALM      30.01R
OSCEOLA        CLEAR     66  62  86 CALM      30.02S
$$

WIZ003>005-009-010-017-018-010400-
NORTH CENTRAL WISCONSIN

CITY           SKY/WX    TMP DP  RH WIND       PRES   REMARKS
WOODRUFF       CLEAR     59  44  57 CALM      30.01S
RHINELANDER    CLEAR     55  53  93 W3        30.02R
EAGLE RIVER    CLEAR     56  55  95 CALM      30.01S
LAND O LAKES   PTCLDY    55  54  96 CALM      30.02R
PHILLIPS       PTCLDY    61  60  97 CALM      30.00S
TOMAHAWK       PTCLDY    57  55  94 CALM      30.02R
MEDFORD        PTCLDY    60  59  98 CALM      30.02S
MERRILL        PTCLDY    63  61  93 CALM      30.00S
$$

WIZ029-030-035-036-043>047-010400-
CENTRAL WISCONSIN

CITY           SKY/WX    TMP DP  RH WIND       PRES   REMARKS
WAUSAU         PTCLDY    68  61  78 NW3       29.99R
MOSINEE        PTCLDY    64  61  88 W5        30.01S
MARSHFIELD     PTCLDY    68  60  75 W6        30.01R
STEVENS POINT  LGT RAIN  64  61  90 CALM      30.01S
WAUPACA        PTCLDY    66  58  75 SW3       30.00S
WAUTOMA        PTCLDY    67  59  75 CALM      30.01R
WISC RAPIDS    PTCLDY    68  60  75 SW5       30.01F
CAMP DOUGLAS   CLEAR     57  57 100 SE1       30.02R
$$

WIZ011>013-019>022-031-037>040-048>050-010400-
NORTHEAST WISCONSIN

CITY           SKY/WX    TMP DP  RH WIND       PRES   REMARKS
ANTIGO         CLEAR     58  57  94 CALM      30.02S
STURGEON BAY   CLEAR     63  57  82 CALM      29.98S
GREEN BAY      PTCLDY    66  60  81 SW3       29.98R
MANITOWOC      MOCLDY    63  61  94 CALM      29.98S FOG
APPLETON       MOCLDY    64  61  88 W7        30.00R
CLINTONVILLE   PTCLDY    63  57  82 CALM      29.99S
OSHKOSH        MOCLDY    66  63  90 SW5       29.99S
$$

WIZ032>034-041-042-053>061-010400-
SOUTHWEST WISCONSIN

CITY           SKY/WX    TMP DP  RH WIND       PRES   REMARKS
LA CROSSE      CLEAR     69  62  78 E6        30.00S
SPARTA         CLEAR     62  60  93 CALM      30.03S
VIROQUA        FAIR      66  58  76 SW3       30.04S
BOSCOBEL       CLEAR     64  60  87 CALM      30.03R
PRAIRIE DU CHI CLEAR     64  58  81 CALM      30.03R
PLATTEVILLE    FAIR      69  58  67 SW3       30.05S
$$

WIZ056-057-062-063-064-067-068-010400-
SOUTH CENTRAL WISCONSIN

CITY           SKY/WX    TMP DP  RH WIND       PRES   REMARKS
BARABOO/DELLS  PTCLDY    65  57  73 CALM      30.03S
LONE ROCK      CLEAR     67  60  78 CALM      30.03R
WATERTOWN      CLEAR     65  61  85 CALM      30.01S
MADISON        MOCLDY    71  59  65 SW3       30.02S
MIDDLETON      FAIR      64  61  91 CALM      30.04R
MONROE         CLEAR     70  57  64 SW7       30.05R
JANESVILLE     CLEAR     64  57  77 CALM      30.02F
$$

WIZ051-052-058>065-066-070>072-010400-
SOUTHEAST WISCONSIN

CITY           SKY/WX    TMP DP  RH WIND       PRES   REMARKS
MILWAUKEE      PTCLDY    73  58  59 SW6       30.01S
WAUKESHA       CLEAR     64  55  72 SW5       30.03S
MILWAUKEE/TIMM CLEAR     68  55  64 SW5       30.02S
RACINE         CLEAR     67  59  75 SW5       30.03S
BURLINGTON     CLEAR     63  57  81 CALM      30.02S
KENOSHA        CLEAR     65  58  78 SW5       30.03R
FOND DU LAC    MOCLDY    65  62  90 SW6       30.00S
SHEBOYGAN      MOCLDY    65  62  90 SW6       29.99F
WEST BEND      PTCLDY    68  57  68 W3        30.01S
JUNEAU         CLEAR     67  58  72 CALM      30.03R
$$

LSZ147-162-010400-
LAKE SUPERIOR

STATION/POSITION TIME  TEMP    WIND        PRES    WAVE
                       AIR SEA DIR/SP/G            HT/PER
                 (UTC) (F)     (DEG/KT/KT) (MB)    (FT/S)
W MID LAKE BUOY  0250   52 45  120/  4/  6 1014.7R   0
PORT WING        0240   65     160/  3/  4 1014.9R
SAXON HARBOR     0200          200/  5/  6 1014.6R
$$

LMZ867-665-643>646-010400-
LAKE MICHIGAN

STATION/POSITION TIME  TEMP    WIND        PRES    WAVE
                       AIR SEA DIR/SP/G            HT/PER
                 (UTC) (F)     (DEG/KT/KT) (MB)    (FT/S)
N MID LAKE BUOY  0250   60 56  240/  8/ 10 1014.8R   2/ 4
NORTHPORT PIER   0200   65     270/  2/  3 1014.6R
SISTER BAY       0226   66        CALM       N/A
ALGOMA LAKESHORE 0221          230/  6/  7   N/A
KEWAUNEE LAKESHO 0300   60     290/  2/  4 1014.2F
SHEBOYGAN LAKESH 0300   71     230/  5/  6 1015.4F
PORT WASHINGTON  0240   72     290/  2/  8 1016.3R
ATWATER BUOY     0300   71     220/  6     1017.1R
MILWAUKEE LAKESH 0300   75     240/  8/  9   N/A
S MID LAKE BUOY  0250   66 63  210/  8/  8 1016.5R   0
KENOSHA   LAKESH 0300   74     230/  5/  7 1016.3R
$$

TC  - TEMPERATURE IN CELSIUS
VSB - VISIBILITY IN STATUTE MILES
WCI - WIND CHILL INDEX
HX  - HEAT INDEX




USA.gov is the U.S. government's official web portal to all federal, state and local government web resources and services.